Time,TemperatureF,DewpointF,PressureIn,WindDirection,WindDirectionDegrees,WindSpeedMPH,WindSpeedGustMPH,Humidity,HourlyPrecipIn,Conditions,Clouds,dailyrainin,SoftwareType,DateUTC
2013-08-14 00:23:00,56.0,51.0,-100.00,WSW,240,4.0,7.0,81,-99.99,,,-99.99,,2013-08-14 04:23:00,
2013-08-14 00:52:00,54.0,51.0,-100.00,SW,230,4.0,6.0,87,-99.99,,,-99.99,,2013-08-14 04:52:00,
2013-08-14 01:22:00,53.0,50.0,-100.00,SW,225,4.0,6.0,88,-99.99,,,-99.99,,2013-08-14 05:22:00,
2013-08-14 01:52:00,54.0,49.0,-100.00,WSW,250,5.0,9.0,84,-99.99,,,-99.99,,2013-08-14 05:52:00,
2013-08-14 02:21:00,54.0,49.0,-100.00,WSW,240,4.0,9.0,83,-99.99,,,-99.99,,2013-08-14 06:21:00,
2013-08-14 02:52:00,53.0,48.0,-100.00,West,260,2.0,7.0,84,-99.99,,,-99.99,,2013-08-14 06:52:00,
2013-08-14 03:21:00,52.0,48.0,-100.00,WSW,255,4.0,7.0,86,-99.99,,,-99.99,,2013-08-14 07:21:00,
2013-08-14 03:52:00,51.0,48.0,-100.00,West,260,3.0,5.0,87,-99.99,,,-99.99,,2013-08-14 07:52:00,
2013-08-14 04:21:00,51.0,48.0,-100.00,WSW,250,2.0,4.0,88,-99.99,,,-99.99,,2013-08-14 08:21:00,
2013-08-14 04:52:00,50.0,47.0,-100.00,WSW,240,1.0,5.0,87,-99.99,,,-99.99,,2013-08-14 08:52:00,
2013-08-14 05:21:00,50.0,47.0,-100.00,SW,225,3.0,6.0,89,-99.99,,,-99.99,,2013-08-14 09:21:00,
2013-08-14 05:33:00,50.0,47.0,-100.00,SW,225,3.0,6.0,89,-99.99,,,-99.99,,2013-08-14 09:33:00,
2013-08-14 05:43:00,50.0,47.0,-100.00,SW,225,3.0,6.0,89,-99.99,,,-99.99,,2013-08-14 09:43:00,
2013-08-14 05:53:00,49.0,47.0,-100.00,SW,230,4.0,6.0,90,-99.99,,,-99.99,,2013-08-14 09:53:00,
2013-08-14 06:23:00,49.0,46.0,-100.00,SW,230,3.0,6.0,89,-99.99,,,-99.99,,2013-08-14 10:23:00,
2013-08-14 06:52:00,49.0,46.0,-100.00,SW,235,2.0,5.0,90,-99.99,,,-99.99,,2013-08-14 10:52:00,
2013-08-14 07:21:00,48.0,46.0,-100.00,SW,230,0.0,3.0,92,-99.99,,,-99.99,,2013-08-14 11:21:00,
2013-08-14 07:52:00,50.0,47.0,-100.00,SW,235,1.0,5.0,88,-99.99,,,-99.99,,2013-08-14 11:52:00,
2013-08-14 08:21:00,51.0,47.0,-100.00,SW,230,1.0,6.0,87,-99.99,,,-99.99,,2013-08-14 12:21:00,
2013-08-14 08:52:00,53.0,48.0,-100.00,WSW,250,4.0,7.0,84,-99.99,,,-99.99,,2013-08-14 12:52:00,
2013-08-14 09:22:00,55.0,49.0,-100.00,West,260,4.0,9.0,79,-99.99,,,-99.99,,2013-08-14 13:22:00,
2013-08-14 09:52:00,56.0,50.0,-100.00,WSW,240,4.0,7.0,78,-99.99,,,-99.99,,2013-08-14 13:52:00,
2013-08-14 10:02:00,56.0,50.0,-100.00,WSW,240,4.0,7.0,78,-99.99,,,-99.99,,2013-08-14 14:02:00,
2013-08-14 10:22:00,59.0,51.0,-100.00,WSW,245,2.0,7.0,75,-99.99,,,-99.99,,2013-08-14 14:22:00,
2013-08-14 10:52:00,60.0,51.0,-100.00,WSW,255,4.0,9.0,71,-99.99,,,-99.99,,2013-08-14 14:52:00,
2013-08-14 11:11:00,60.0,51.0,-100.00,West,270,4.0,10.0,71,-99.99,,,-99.99,,2013-08-14 15:11:00,
2013-08-14 11:22:00,60.0,50.0,-100.00,WSW,255,4.0,11.0,70,-99.99,,,-99.99,,2013-08-14 15:22:00,
2013-08-14 11:57:00,63.0,51.0,-100.00,North,5,1.0,7.0,64,-99.99,,,-99.99,,2013-08-14 15:57:00,
2013-08-14 12:28:00,62.0,49.0,-100.00,West,270,4.0,9.0,62,-99.99,,,-99.99,,2013-08-14 16:28:00,
2013-08-14 12:59:00,63.0,50.0,-100.00,WSW,245,0.0,7.0,63,-99.99,,,-99.99,,2013-08-14 16:59:00,
2013-08-14 13:29:00,66.0,50.0,-100.00,North,10,1.0,9.0,55,-99.99,,,-99.99,,2013-08-14 17:29:00,
2013-08-14 13:44:00,64.0,49.0,-100.00,North,5,5.0,12.0,58,-99.99,,,-99.99,,2013-08-14 17:44:00,
2013-08-14 13:55:00,67.0,52.0,-100.00,North,10,0.0,11.0,58,-99.99,,,-99.99,,2013-08-14 17:55:00,
2013-08-14 14:29:00,-999.0,-99.9,-100.00,North,10,5.0,8.0,58,-99.99,,,-99.99,,2013-08-14 18:29:00,
2013-08-14 14:36:00,67.0,50.0,-100.00,North,5,4.0,9.0,54,-99.99,,,-99.99,,2013-08-14 18:36:00,
2013-08-14 14:56:00,67.0,51.0,-100.00,NNE,15,1.0,9.0,56,-99.99,,,-99.99,,2013-08-14 18:56:00,
2013-08-14 15:33:00,68.0,49.0,-100.00,West,265,2.0,9.0,52,-99.99,,,-99.99,,2013-08-14 19:33:00,
2013-08-14 15:54:00,67.0,51.0,-100.00,NE,35,0.0,11.0,57,-99.99,,,-99.99,,2013-08-14 19:54:00,
2013-08-14 16:52:00,69.0,49.0,-100.00,West,265,3.0,7.0,49,-99.99,,,-99.99,,2013-08-14 20:52:00,
2013-08-14 17:24:00,68.0,47.0,-100.00,NNE,25,0.0,0.0,46,-99.99,,,-99.99,,2013-08-14 21:24:00,
2013-08-14 17:55:00,67.0,48.0,-100.00,North,10,1.0,7.0,51,-99.99,,,-99.99,,2013-08-14 21:55:00,
2013-08-14 18:23:00,67.0,50.0,-100.00,WSW,245,0.0,2.0,53,-99.99,,,-99.99,,2013-08-14 22:23:00,
2013-08-14 18:54:00,64.0,51.0,-100.00,NNE,15,1.0,7.0,61,-99.99,,,-99.99,,2013-08-14 22:54:00,
2013-08-14 19:25:00,64.0,52.0,-100.00,West,270,0.0,0.0,65,-99.99,,,-99.99,,2013-08-14 23:25:00,
2013-08-14 19:56:00,66.0,52.0,-100.00,WSW,250,0.0,0.0,60,-99.99,,,-99.99,,2013-08-14 23:56:00,
2013-08-14 20:23:00,66.0,53.0,-100.00,North,5,0.0,0.0,63,-99.99,,,-99.99,,2013-08-15 00:23:00,
2013-08-14 21:16:00,60.0,52.0,-100.00,SE,140,0.0,0.0,77,-99.99,,,-99.99,,2013-08-15 01:16:00,
2013-08-14 21:52:00,58.0,53.0,-100.00,East,100,0.0,0.0,84,-99.99,,,-99.99,,2013-08-15 01:52:00,
2013-08-14 22:21:00,56.0,53.0,-100.00,SE,130,0.0,0.0,88,-99.99,,,-99.99,,2013-08-15 02:21:00,
2013-08-14 23:22:00,54.0,51.0,-100.00,South,185,0.0,0.0,91,-99.99,,,-99.99,,2013-08-15 03:22:00,
2013-08-14 23:53:00,53.0,51.0,-100.00,South,180,0.0,0.0,91,-99.99,,,-99.99,,2013-08-15 03:53:00,